Petaluma, CA

8:34 AM PDT on August 19, 2017 (GMT -0700)
Petaluma

Weather History for KO69 - March, 2014

Change the Weather History Date:

Tuesday, March 4, 2014

  Actual Average (KAPC) Record (KAPC)
Temperature  
Mean Temperature 56 °F -  
Max Temperature 62 °F 64 °F 73 °F (2012)
Min Temperature 51 °F 42 °F 32 °F (1999)
Degree Days  
Heating Degree Days 8    
Growing Degree Days 6 (Base 50)    
Moisture  
Dew Point 54 °F    
Average Humidity 94    
Maximum Humidity 100    
Minimum Humidity 72    
Precipitation  
Precipitation 0.00 in - - ()
Sea Level Pressure  
Sea Level Pressure 30.10 in    
Wind  
Wind Speed 5 mph (SE)    
Max Wind Speed 9 mph    
Max Gust Speed -    
Visibility 10 miles    
Events      
Averages and records for this station are not official NWS values.
T = Trace of Precipitation, MM = Missing Value Source: NWS Daily Summary

Daily Weather History Graph

Daily Weather History Graph

Search for Another Location

Airport or City:

Trip Planner

Search our weather history database for the weather conditions in past years. The results will help you decide how hot, cold, wet, or windy it might be!

Date:

Astronomy

Mar. 04, 2014 Rise Set
Actual Time 6:37 AM PST 6:06 PM PST
Civil Twilight 6:11 AM PST 6:33 PM PST
Nautical Twilight 5:40 AM PST 7:03 PM PST
Astronomical Twilight 5:10 AM PST 7:34 PM PST
Moon 8:31 AM PST (3/4) 10:15 PM PST (3/4)
Length of Visible Light 12h 21m
Length of Day
11h 29m
Waxing Crescent, 15% of the Moon is Illuminated
Mar 4
Waxing Crescent
Mar 8
First Quarter
Mar 16
Full
Mar 23
Last Quarter
Mar 30
New

Hourly Weather History & Observations

Time (PST) Temp. Dew Point Humidity Pressure Visibility Wind Dir Wind Speed Gust Speed Precip Events Conditions
12:15 AM 53.6 °F 53.6 °F 100% 30.09 in 10.0 mi East 5.8 mph - N/A   Overcast
12:35 AM 53.6 °F 53.6 °F 100% 30.09 in 8.0 mi East 8.1 mph - N/A   Overcast
12:55 AM 51.8 °F 51.8 °F 100% 30.09 in 5.0 mi ESE 6.9 mph - N/A   Overcast
1:15 AM 51.8 °F 51.8 °F 100% 30.10 in 4.0 mi ESE 8.1 mph - N/A   Overcast
1:35 AM 51.8 °F 51.8 °F 100% 30.10 in 5.0 mi East 6.9 mph - N/A   Overcast
1:55 AM 51.8 °F 51.8 °F 100% 30.10 in 10.0 mi East 6.9 mph - N/A   Overcast
2:15 AM 51.8 °F 51.8 °F 100% 30.10 in 10.0 mi East 5.8 mph - N/A   Overcast
2:35 AM 51.8 °F 51.8 °F 100% 30.10 in 4.0 mi ESE 4.6 mph - N/A   Overcast
2:55 AM 51.8 °F 51.8 °F 100% 30.10 in 3.0 mi ESE 5.8 mph - N/A   Overcast
3:15 AM 51.8 °F 51.8 °F 100% 30.09 in 4.0 mi ESE 4.6 mph - N/A   Overcast
3:35 AM 51.8 °F 51.8 °F 100% 30.09 in 8.0 mi SE 3.5 mph - N/A   Overcast
3:55 AM 51.8 °F 51.8 °F 100% 30.09 in 10.0 mi ESE 5.8 mph - N/A   Overcast
4:15 AM 51.8 °F 51.8 °F 100% 30.08 in 10.0 mi ESE 6.9 mph - N/A   Overcast
4:35 AM 51.8 °F 51.8 °F 100% 30.08 in 10.0 mi ESE 5.8 mph - N/A   Overcast
4:55 AM 51.8 °F 51.8 °F 100% 30.07 in 10.0 mi ESE 4.6 mph - N/A   Overcast
5:15 AM 53.6 °F 53.6 °F 100% 30.08 in 10.0 mi SE 3.5 mph - N/A   Overcast
5:35 AM 53.6 °F 53.6 °F 100% 30.09 in 10.0 mi SE 3.5 mph - N/A   Overcast
5:55 AM 53.6 °F 53.6 °F 100% 30.10 in 10.0 mi Calm Calm - N/A   Overcast
6:15 AM 53.6 °F 53.6 °F 100% 30.10 in 10.0 mi SE 3.5 mph - N/A   Overcast
6:35 AM 53.6 °F 53.6 °F 100% 30.11 in 10.0 mi ESE 3.5 mph - N/A   Overcast
6:55 AM 53.6 °F 53.6 °F 100% 30.11 in 10.0 mi ESE 3.5 mph - N/A   Overcast
7:15 AM 53.6 °F 53.6 °F 100% 30.12 in 10.0 mi SE 3.5 mph - N/A   Overcast
7:35 AM 53.6 °F 53.6 °F 100% 30.12 in 10.0 mi SE 3.5 mph - N/A   Overcast
7:55 AM 53.6 °F 53.6 °F 100% 30.12 in 10.0 mi SSE 3.5 mph - N/A   Overcast
8:15 AM 55.4 °F 55.4 °F 100% 30.12 in 10.0 mi SE 4.6 mph - N/A   Mostly Cloudy
8:35 AM 55.4 °F 55.4 °F 100% 30.13 in 10.0 mi SE 4.6 mph - N/A   Clear
8:55 AM 55.4 °F 55.4 °F 100% 30.13 in 10.0 mi East 6.9 mph - N/A   Mostly Cloudy
9:15 AM 55.4 °F 55.4 °F 100% 30.13 in 10.0 mi ESE 6.9 mph - N/A   Overcast
9:35 AM 57.2 °F 57.2 °F 100% 30.14 in 10.0 mi ESE 8.1 mph - N/A   Overcast
9:55 AM 57.2 °F 57.2 °F 100% 30.14 in 10.0 mi ESE 6.9 mph - N/A   Overcast
10:15 AM 57.2 °F 55.4 °F 94% 30.15 in 10.0 mi ESE 5.8 mph - N/A   Overcast
10:35 AM 57.2 °F 55.4 °F 94% 30.15 in 10.0 mi ESE 6.9 mph - N/A   Overcast
10:55 AM 59.0 °F 55.4 °F 88% 30.15 in 10.0 mi East 5.8 mph - N/A   Overcast
11:15 AM 59.0 °F 55.4 °F 88% 30.15 in 10.0 mi ESE 6.9 mph - N/A   Overcast
11:35 AM 59.0 °F 53.6 °F 82% 30.14 in 10.0 mi SE 6.9 mph - N/A   Overcast
11:55 AM 59.0 °F 55.4 °F 88% 30.14 in 10.0 mi SE 9.2 mph - N/A   Overcast
12:15 PM 59.0 °F 55.4 °F 88% 30.13 in 10.0 mi SSE 8.1 mph - N/A   Mostly Cloudy
12:35 PM 60.8 °F 55.4 °F 82% 30.12 in 10.0 mi SE 6.9 mph - N/A   Mostly Cloudy
12:55 PM 62.6 °F 55.4 °F 77% 30.11 in 10.0 mi ESE 5.8 mph - N/A   Mostly Cloudy
1:15 PM 62.6 °F 53.6 °F 72% 30.10 in 10.0 mi SSE 8.1 mph - N/A   Mostly Cloudy
1:35 PM 62.6 °F 55.4 °F 77% 30.10 in 10.0 mi SSE 9.2 mph - N/A   Mostly Cloudy
1:55 PM 60.8 °F 55.4 °F 82% 30.10 in 10.0 mi South 9.2 mph - N/A   Scattered Clouds
2:15 PM 60.8 °F 55.4 °F 82% 30.09 in 10.0 mi SE 9.2 mph - N/A   Clear
2:35 PM 60.8 °F 55.4 °F 82% 30.09 in 10.0 mi SE 5.8 mph - N/A   Clear
2:55 PM 62.6 °F 55.4 °F 77% 30.09 in 10.0 mi SSE 8.1 mph - N/A   Clear
3:15 PM 62.6 °F 55.4 °F 77% 30.09 in 10.0 mi South 6.9 mph - N/A   Clear
3:35 PM 62.6 °F 55.4 °F 77% 30.09 in 10.0 mi SE 3.5 mph - N/A   Clear
3:55 PM 62.6 °F 53.6 °F 72% 30.09 in 10.0 mi Calm Calm - N/A   Clear
4:15 PM 60.8 °F 55.4 °F 82% 30.08 in 10.0 mi ESE 3.5 mph - N/A   Clear
4:35 PM 60.8 °F 55.4 °F 82% 30.07 in 10.0 mi Calm Calm - N/A   Clear
4:55 PM 60.8 °F 55.4 °F 82% 30.08 in 10.0 mi SE 4.6 mph - N/A   Clear
5:15 PM 60.8 °F 53.6 °F 77% 30.07 in 10.0 mi Calm Calm - N/A   Clear
5:35 PM 59.0 °F 55.4 °F 88% 30.08 in 10.0 mi SSE 3.5 mph - N/A   Clear
5:55 PM 59.0 °F 53.6 °F 82% 30.08 in 10.0 mi South 3.5 mph - N/A   Clear
6:15 PM 59.0 °F 55.4 °F 88% 30.08 in 10.0 mi Calm Calm - N/A   Clear
6:35 PM 57.2 °F 55.4 °F 94% 30.08 in 10.0 mi Calm Calm - N/A   Clear
6:55 PM 57.2 °F 57.2 °F 100% 30.09 in 10.0 mi Calm Calm - N/A   Clear
7:15 PM 57.2 °F 57.2 °F 100% 30.09 in 10.0 mi Calm Calm - N/A   Partly Cloudy
7:35 PM 57.2 °F 57.2 °F 100% 30.10 in 10.0 mi Calm Calm - N/A   Scattered Clouds
7:55 PM 55.4 °F 55.4 °F 100% 30.10 in 10.0 mi Calm Calm - N/A   Mostly Cloudy
8:15 PM 55.4 °F 55.4 °F 100% 30.10 in 10.0 mi Calm Calm - N/A   Scattered Clouds
8:35 PM 55.4 °F 55.4 °F 100% 30.10 in 10.0 mi Calm Calm - N/A   Mostly Cloudy
8:55 PM 55.4 °F 55.4 °F 100% 30.10 in 10.0 mi Calm Calm - N/A   Mostly Cloudy
9:15 PM 53.6 °F 53.6 °F 100% 30.11 in 10.0 mi Calm Calm - N/A   Overcast
9:35 PM 53.6 °F 53.6 °F 100% 30.11 in 10.0 mi SSE 3.5 mph - N/A   Overcast
9:55 PM 53.6 °F 53.6 °F 100% 30.11 in 10.0 mi Calm Calm - N/A   Overcast
10:15 PM 53.6 °F 53.6 °F 100% 30.12 in 10.0 mi Calm Calm - N/A   Overcast
10:35 PM 53.6 °F 53.6 °F 100% 30.12 in 10.0 mi Calm Calm - N/A   Overcast
10:55 PM 53.6 °F 53.6 °F 100% 30.12 in 10.0 mi SE 3.5 mph - N/A   Overcast
11:15 PM 55.4 °F 55.4 °F 100% 30.11 in 10.0 mi Calm Calm - N/A   Overcast
11:35 PM 55.4 °F 55.4 °F 100% 30.12 in 10.0 mi Calm Calm - N/A   Overcast
11:55 PM 55.4 °F 55.4 °F 100% 30.11 in 10.0 mi Calm Calm - N/A   Overcast